Monday, December 17, 2018, 10:09 AM GMT
Back to Local

CWRN, Hart Island Meteorological Aeronautical Presentation System

Location: , , Canada Lat: 45.35
Local Time: 10:09 AM GMT (10:09 GMT) Lon: -60.983
Time Zone: GMT Elev: 13 ft

Show me the last for .
Show Coded

Time T Td Feel RH Dir Speed Gust Alt SLP Vis Weather Sky Remarks
2018-12-17 09:00 34 29 21 83 110° 20 25 - 29.96 0 Peak wind: 25 mph (22 kts) from 110° at 53 min
2018-12-17 08:00 34 28 23 77 120° 18 - - 29.98 0 Peak wind: 23 mph (20 kts) from 130° at 54 min
2018-12-17 07:00 34 28 24 77 110° 16 - - 30.01 0 Peak wind: 19 mph (17 kts) from 120° at 50 min
2018-12-17 06:00 34 28 26 76 90° 10 - - 30.05 0 None
2018-12-17 05:00 33 29 25 86 70° 10 - - 30.08 0 None
2018-12-17 04:00 32 28 24 86 60° 8 - - 30.12 0 None
2018-12-17 03:00 32 29 25 89 30° 8 - - 30.14 0 None
2018-12-17 02:00 32 27 26 82 30° 7 - - 30.17 0 None
2018-12-17 01:00 32 27 25 82 20° 8 - - 30.17 0 None
2018-12-17 00:00 33 27 24 79 350° 12 - - 30.16 0 None
2018-12-16 23:00 33 28 24 79 320° 13 - - 30.17 0 None
2018-12-16 22:00 32 27 26 80 280° 6 - - 30.18 0 None
2018-12-16 21:00 33 26 27 76 230° 7 - - 30.19 0 None
2018-12-16 20:00 36 27 29 71 280° 8 - - 30.16 0 None
2018-12-16 19:00 38 26 32 62 280° 8 - - 30.15 0 None
2018-12-16 18:00 38 26 33 62 300° 7 - - 30.14 0 None
2018-12-16 17:00 38 29 31 70 320° 12 - - 30.14 0 Peak wind: 23 mph (20 kts) from 340° at 02 min
2018-12-16 16:00 35 26 24 70 330° 18 - - 30.14 0 Peak wind: 24 mph (21 kts) from 320° at 15 min
2018-12-16 15:00 36 24 25 62 340° 18 - - 30.15 0 Peak wind: 21 mph (19 kts) from 350° at 48 min
2018-12-16 14:00 36 29 26 77 350° 16 - - 30.19 0 Peak wind: 23 mph (20 kts) from 330° at 12 min
2018-12-16 13:00 35 27 24 74 330° 17 - - 30.17 0 Peak wind: 26 mph (23 kts) from 340° at 09 min
2018-12-16 12:00 34 28 23 77 330° 22 - - 30.15 0 Peak wind: 28 mph (25 kts) from 330° at 20 min
2018-12-16 11:00 35 29 22 79 320° 22 29 - 30.15 0 Peak wind: 32 mph (28 kts) from 320° at 24 min

Support USWX by starting your Amazon purchase here.